#timestamp,LO_Frequency,Hit,StdDev 
1507950015.8,286047001.9,N
1507950035.6,286047000.6,N
1507950055.4,286047000.1,N
1507950075.3,286047001.2,N
1507950095.1,286047000.5,N
1507950115.8,286046999.9,N
1507950135.7,286047002.7,N
1507950155.5,286047000.7,N
1507950175.4,286047000.5,N
1507950195.2,286047001.4,N
1507950215.0,286047003.9,N
1507950215.9,286047003.9,N
1507950235.8,286047006.0,Y
1507950255.6,286047002.1,P
1507950275.4,286047002.2,P
1507950295.3,286047001.8,P
1507950315.1,286047002.4,Y
1507950335.9,286047001.2,P
1507950355.7,286046999.5,N
1507950375.5,286046996.5,P
1507950395.4,286046999.6,N
1507950415.2,286046998.6,N
1507950435.0,286046999.6,N
1507950436.0,286046999.6,N
1507950455.8,286046998.7,N
1507950475.6,286046999.1,N
1507950495.5,286046996.9,N
1507950515.3,286046999.0,N
1507950535.1,286047000.8,N
1507950555.9,286047000.0,N
1507950575.7,286046999.9,N
1507950595.5,286047002.7,N
1507950615.4,286047002.7,N
1507950635.2,286047002.6,N
1507950655.1,286047001.7,N
1507950656.0,286047001.7,N
1507950675.8,286046999.7,N
1507950695.6,286047002.7,N
1507950715.5,286046999.8,N
1507950735.3,286047000.3,N
1507950755.1,286047002.5,N
1507950775.9,286047001.6,N
1507950795.7,286047000.3,N
1507950815.6,286047000.2,N
1507950835.4,286047004.0,N
1507950855.2,286047002.4,N
1507950875.1,286047002.5,N
1507950876.0,286047002.5,N
1507950895.8,286047001.4,N
1507950915.7,286046999.9,N
1507950935.5,286047000.7,N
1507950955.3,286047000.3,N
1507950975.2,286047000.4,N
1507950995.9,286047002.6,N
1507951015.7,286047002.8,N
1507951035.6,286047000.1,N
1507951055.4,286047000.9,N
1507951075.2,286046999.8,N
1507951095.1,286047000.0,N
1507951096.0,286047000.0,N
1507951115.8,286047002.1,N
1507951135.7,286047000.2,N
1507951155.5,286047002.7,N
1507951175.3,286046999.8,N
1507951195.2,286047001.7,N
1507951215.0,286047002.1,N
1507951215.9,286047002.1,N
1507951235.8,286046999.8,N
1507951255.6,286047000.4,N
1507951275.4,286047000.2,N
1507951295.3,286047000.8,N
1507951315.1,286046999.3,N
1507951335.8,286047001.1,N
1507951355.7,286046998.5,N
1507951375.5,286046998.6,N
1507951395.4,286047000.2,N
1507951415.2,286046999.8,N
1507951435.0,286047000.2,N
1507951435.9,286047000.2,N
1507951455.8,286047000.4,N
1507951475.6,286046998.7,N
1507951495.4,286046998.3,N
1507951515.3,286047000.7,N
1507951535.1,286047000.9,N
1507951555.9,286047002.8,N
1507951575.7,286047002.1,N
1507951595.5,286047001.8,N
1507951615.4,286047003.2,N
1507951635.2,286047001.3,N
1507951655.1,286047004.4,Y
1507951656.0,286047004.4,P
1507951675.8,286047005.6,N
1507951695.6,286047001.9,N
1507951715.5,286047001.5,N
1507951735.3,286047002.4,N
1507951755.1,286047002.3,N
1507951775.9,286047002.7,N
1507951795.7,286046999.7,N
1507951815.6,286047002.4,N
1507951835.4,286047000.2,N
1507951855.2,286047000.9,N
1507951875.1,286047000.0,N
1507951876.0,286047000.0,N
1507951895.8,286047000.2,N
1507951915.6,286047001.8,N
1507951935.5,286047005.5,Y
1507951955.3,286047002.3,P
1507951975.2,286047000.5,N
1507951995.9,286047001.0,N
1507952015.7,286046998.8,N
1507952035.6,286046999.0,N
1507952055.4,286046998.5,N
1507952075.2,286046998.2,N
1507952095.1,286046999.1,N
1507952096.0,286046999.1,N
1507952115.8,286046996.7,N
1507952135.7,286046999.1,N
1507952155.5,286046999.0,N
1507952175.3,286047000.5,N
1507952195.2,286046999.9,N
1507952215.0,286047000.4,N
1507952215.9,286047000.4,N
1507952235.7,286047002.6,N
1507952255.6,286047004.1,N
1507952275.4,286047003.4,N
1507952295.3,286047003.9,N
1507952315.1,286047000.1,N
1507952316.0,286047000.1,N
1507952335.8,286046999.8,N
1507952355.7,286046999.8,N
1507952375.5,286046999.8,N
1507952395.3,286047001.6,N
1507952415.2,286047003.7,N
1507952435.0,286047001.3,N
1507952435.9,286047001.3,N
1507952455.8,286047003.3,N
1507952475.6,286047003.8,N
1507952495.4,286047003.4,N
1507952515.3,286047003.4,N
1507952535.1,286047005.6,N
1507952555.9,286047005.8,N
1507952575.7,286047003.5,N
1507952595.5,286047002.6,N
1507952615.4,286047002.3,N
1507952635.2,286047000.1,N
1507952655.0,286047002.8,N
1507952655.9,286047002.8,N
1507952675.8,286046999.9,N
1507952695.6,286047000.5,N
1507952715.5,286047002.6,N
1507952735.3,286047001.8,N
1507952755.1,286047005.1,N
1507952775.9,286047004.1,N
1507952795.7,286047002.5,N
1507952815.6,286047002.6,N
1507952835.4,286047004.2,N
1507952855.2,286047002.2,N
1507952875.1,286047002.1,N
1507952876.0,286047002.1,N
1507952895.8,286046999.9,N
1507952915.6,286046999.8,N
1507952935.5,286047001.3,N
1507952955.3,286047001.8,N
1507952975.2,286047004.3,N
1507952995.9,286047002.6,N
1507953015.7,286047002.7,N
1507953035.6,286047001.6,N
1507953055.4,286047001.9,N
1507953075.2,286047001.4,N
1507953095.1,286047004.2,N
1507953096.0,286047004.2,N
1507953115.8,286047004.2,Y
1507953135.7,286046999.0,P
1507953155.5,286046996.5,N
1507953175.3,286046998.6,N
1507953195.2,286047001.1,N
1507953215.0,286046998.4,N
1507953215.9,286046998.4,N
1507953235.8,286047000.0,N
1507953255.6,286046999.9,N
1507953275.4,286046999.8,N
1507953295.3,286047000.4,N
1507953315.1,286046998.5,N
1507953335.8,286046999.6,N
1507953355.7,286046996.6,N
1507953375.5,286046998.0,N
1507953395.4,286046997.4,N
1507953415.2,286046997.3,N
1507953435.0,286046999.6,N
1507953435.9,286046999.6,N
1507953485.8,286046998.0,E
1507953495.7,286046997.0,N
1507953515.6,286047001.1,P
1507953535.4,286047002.6,N
1507953555.2,286047001.8,N
1507953575.1,286047004.1,N
1507953576.0,286047004.1,N
1507953595.8,286047002.0,N
